User: anonymous   Login
Location: Caltech
(34.1382°N, 118.1253°W)
Time: 20:59:23
(UTC-07:00)
Language:

Hamsat - Orbit

View from above orbital plane
View from above orbital plane
View from above satellite
View from above satellite

Ground track
Ground track

The orbit data is extracted from the following two-line orbital elements,

1 28650U 05017B   14304.46897941  .00004003  00000-0  46056-3 0  8950
2 28650 097.5650 302.6900 0026526 070.0449 290.3621 14.86039150513469
Epoch (UTC): 31 October 2014 11:15:19
Eccentricity: 0.0026526
inclination: 97.5650°
perigee height: 592 km
apogee height: 629 km
right ascension of ascending node: 302.6900°
argument of perigee: 70.0449°
revolutions per day: 14.86039150
mean anomaly at epoch: 290.3621°
orbit number at epoch: 51346

The dashed part of the orbit path shows where the satellite is in the earth's shadow,  

DLR